GW6635 Weather Reports


time (UTC)temp
C
wind
direction
speed
KPH
gust
KPH
rain 1hr
cm
rain 24hr
cm
rain mn
cm
humidity
%
barometer
mb
20260509032840 22 158 0.0 0.0 0.00 0.00 0.00 75 1010.3
20260509032337 22 154 1.6 1.6 0.00 0.00 0.00 75 1010.3
20260509031836 22 134 0.0 0.0 0.00 0.00 0.00 75 1010.2
20260509031332 22 113 0.0 0.0 0.00 0.00 0.00 75 1010.1
20260509030830 22 231 1.6 3.2 0.00 0.00 0.00 74 1010.2
20260509030328 22 166 0.0 3.2 0.00 0.00 0.00 74 1010.0
20260509025824 22 197 3.2 3.2 0.00 0.00 0.00 74 1010.1
20260509025320 22 171 0.0 1.6 0.00 0.00 0.00 75 1009.8
20260509024815 22 122 0.0 1.6 0.00 0.00 0.00 74 1009.8
20260509024312 22 216 1.6 3.2 0.00 0.00 0.00 74 1009.5
20260509023809 22 163 1.6 4.8 0.00 0.00 0.00 74 1009.3
20260509023306 22 152 1.6 4.8 0.00 0.00 0.00 74 1009.4
20260509022802 22 222 3.2 4.8 0.00 0.00 0.00 74 1009.3
20260509022300 22 144 0.0 3.2 0.00 0.00 0.00 74 1009.2
20260509021757 22 166 1.6 3.2 0.00 0.00 0.00 74 1009.1
20260509021254 22 242 0.0 3.2 0.00 0.00 0.00 74 1009.1
20260509020752 22 160 0.0 6.4 0.00 0.00 0.00 74 1009.2
20260509020249 22 125 1.6 4.8 0.00 0.00 0.00 74 1009.1
20260509015747 22 189 3.2 4.8 0.00 0.00 0.00 73 1009.2
20260509015245 22 154 0.0 4.8 0.00 0.00 0.00 73 1009.1
20260509014741 22 153 1.6 6.4 0.00 0.00 0.00 73 1009.1
20260509014238 22 144 4.8 6.4 0.00 0.00 0.00 73 1009.1
20260509013735 22 174 0.0 4.8 0.00 0.00 0.00 73 1009.2
20260509013230 22 169 1.6 3.2 0.00 0.00 0.00 73 1008.9
20260509012727 22 222 0.0 3.2 0.00 0.00 0.00 73 1008.8
20260509012224 22 165 0.0 3.2 0.00 0.00 0.00 72 1008.9
20260509011721 22 156 3.2 4.8 0.00 0.00 0.00 72 1008.8
20260509011219 22 150 0.0 4.8 0.00 0.00 0.00 72 1008.8
20260509010717 22 192 3.2 4.8 0.00 0.00 0.00 72 1008.6
20260509010213 22 165 0.0 1.6 0.00 0.00 0.00 71 1008.6
20260509005710 22 130 0.0 3.2 0.00 0.00 0.00 71 1008.6
20260509005207 22 207 0.0 3.2 0.00 0.00 0.00 70 1008.5
20260509004702 22 147 3.2 6.4 0.00 0.00 0.00 70 1008.4
20260509004200 22 157 0.0 6.4 0.00 0.00 0.00 70 1008.3
20260509003658 23 201 1.6 6.4 0.00 0.00 0.00 69 1008.3
20260509003155 23 109 3.2 4.8 0.00 0.00 0.00 69 1008.4
20260509002652 23 183 3.2 9.7 0.00 0.00 0.00 69 1008.3
20260509002149 23 142 1.6 3.2 0.00 0.00 0.00 68 1008.2
20260509001647 23 137 1.6 9.7 0.00 0.00 0.00 67 1008.3
20260509001142 23 192 3.2 9.7 0.00 0.00 0.00 67 1008.3
20260509000641 23 116 1.6 4.8 0.00 0.00 0.00 66 1008.5
20260509000138 23 195 1.6 4.8 0.00 0.00 0.00 66 1008.6
20260508235635 23 190 1.6 4.8 0.00 0.00 0.00 65 1008.5
20260508235131 23 148 0.0 6.4 0.00 0.00 0.00 65 1008.7
20260508234629 23 186 3.2 9.7 0.00 0.00 0.00 64 1008.6
20260508234125 23 168 6.4 14.5 0.00 0.00 0.00 64 1008.6
20260508233625 24 195 1.6 12.9 0.00 0.00 0.00 63 1008.9
20260508233122 25 229 1.6 4.8 0.00 0.00 0.00 62 1008.8
20260508232619 25 209 0.0 6.4 0.00 0.00 0.00 63 1008.8
20260508232115 25 227 3.2 4.8 0.00 0.00 0.00 63 1008.9
20260508231613 24 163 1.6 3.2 0.00 0.00 0.00 64 1008.8
20260508231110 24 125 3.2 9.7 0.00 0.00 0.00 63 1008.9
20260508230606 24 149 3.2 9.7 0.00 0.00 0.00 63 1008.9
20260508225601 24 153 3.2 6.4 0.00 0.00 0.00 64 1008.9
20260508225057 24 152 0.0 11.3 0.00 0.00 0.00 64 1008.9
20260508224555 25 133 3.2 9.7 0.00 0.00 0.00 63 1009.1
20260508224052 25 128 3.2 11.3 0.00 0.00 0.00 63 1008.7
20260508223550 25 137 1.6 6.4 0.00 0.00 0.00 63 1008.8
20260508223047 25 204 1.6 11.3 0.00 0.00 0.00 62 1008.8
20260508222544 25 306 3.2 12.9 0.00 0.00 0.00 61 1008.8
20260508222041 25 151 6.4 11.3 0.00 0.00 0.00 61 1008.5
20260508221537 26 214 3.2 6.4 0.00 0.00 0.00 61 1008.5
20260508221033 26 162 3.2 11.3 0.00 0.00 0.00 60 1008.7
20260508220530 26 171 1.6 11.3 0.00 0.00 0.00 60 1008.6
20260508220026 26 135 3.2 12.9 0.00 0.00 0.00 58 1008.4
20260508215523 26 187 1.6 3.2 0.00 0.00 0.00 60 1008.4
20260508215020 26 159 4.8 11.3 0.00 0.00 0.00 57 1008.4
20260508214517 26 232 1.6 3.2 0.00 0.00 0.00 58 1008.8
20260508214013 26 202 3.2 11.3 0.00 0.00 0.00 58 1008.6
20260508213511 26 138 1.6 9.7 0.00 0.00 0.00 60 1008.3
20260508213007 26 192 3.2 6.4 0.00 0.00 0.00 58 1008.6
20260508212503 26 171 1.6 9.7 0.00 0.00 0.00 58 1008.9
20260508211959 25 152 1.6 9.7 0.00 0.00 0.00 60 1008.9
20260508211455 24 176 1.6 6.4 0.00 0.00 0.00 62 1009.3
20260508210952 23 157 0.0 4.8 0.00 0.00 0.00 65 1009.5
20260508210449 23 178 3.2 6.4 0.00 0.00 0.00 64 1009.8
20260508205945 23 170 3.2 11.3 0.00 0.00 0.00 64 1009.9
20260508205442 23 179 6.4 12.9 0.00 0.00 0.00 63 1010.0
20260508204938 23 159 1.6 9.7 0.00 0.00 0.00 64 1010.4
20260508204436 23 165 3.2 9.7 0.00 0.00 0.00 63 1010.4
20260508203931 23 202 6.4 9.7 0.00 0.00 0.00 62 1010.5
20260508203428 23 197 3.2 6.4 0.00 0.00 0.00 62 1010.5
20260508202923 23 149 1.6 9.7 0.00 0.00 0.00 62 1010.5
20260508202421 24 207 3.2 11.3 0.00 0.00 0.00 61 1010.5
20260508201918 24 168 1.6 6.4 0.00 0.00 0.00 61 1010.7
20260508201415 25 317 4.8 12.9 0.00 0.00 0.00 60 1010.6
20260508200911 25 147 1.6 9.7 0.00 0.00 0.00 60 1010.6
20260508200408 25 227 3.2 9.7 0.00 0.00 0.00 57 1010.6
20260508195903 26 171 0.0 6.4 0.00 0.00 0.00 58 1010.4
20260508195401 26 186 3.2 12.9 0.00 0.00 0.00 57 1010.6
20260508194857 26 213 0.0 6.4 0.00 0.00 0.00 58 1010.6
20260508194354 26 177 6.4 11.3 0.00 0.00 0.00 56 1010.7
20260508193851 26 182 3.2 9.7 0.00 0.00 0.00 56 1010.7
20260508193348 26 220 4.8 6.4 0.00 0.00 0.00 56 1010.8
20260508192844 26 140 3.2 3.2 0.00 0.00 0.00 56 1010.8
20260508192341 26 181 4.8 9.7 0.00 0.00 0.00 57 1010.9
20260508191838 25 167 6.4 9.7 0.00 0.00 0.00 58 1010.8
20260508191336 25 151 6.4 11.3 0.00 0.00 0.00 56 1010.9
20260508190832 25 183 0.0 3.2 0.00 0.00 0.00 58 1010.9
20260508190329 26 164 4.8 11.3 0.00 0.00 0.00 56 1010.9
20260508185825 26 161 1.6 11.3 0.00 0.00 0.00 57 1011.2
20260508185323 26 171 1.6 3.2 0.00 0.00 0.00 55 1011.1
20260508184820 26 150 1.6 9.7 0.00 0.00 0.00 56 1011.2
20260508184317 26 177 1.6 3.2 0.00 0.00 0.00 55 1011.0
20260508183814 25 134 1.6 3.2 0.00 0.00 0.00 56 1011.3
20260508183311 25 178 0.0 9.7 0.00 0.00 0.00 56 1011.3
20260508182806 26 194 3.2 6.4 0.00 0.00 0.00 53 1011.5
20260508182306 26 159 3.2 6.4 0.00 0.00 0.00 54 1011.5
20260508181759 26 125 1.6 4.8 0.00 0.00 0.00 54 1011.5
20260508181256 25 215 4.8 6.4 0.00 0.00 0.00 54 1011.8
20260508180753 26 159 4.8 6.4 0.00 0.00 0.00 54 1011.8
20260508180250 25 97 1.6 4.8 0.00 0.00 0.00 56 1012.0
20260508175746 25 170 3.2 12.9 0.00 0.00 0.00 55 1011.9
20260508175242 25 199 3.2 9.7 0.00 0.00 0.00 56 1012.1
20260508174741 26 178 6.4 9.7 0.00 0.00 0.00 52 1012.3
20260508174238 26 192 1.6 4.8 0.00 0.00 0.00 55 1012.2
20260508173734 25 195 6.4 6.4 0.00 0.00 0.00 54 1012.3
20260508173230 25 70 1.6 4.8 0.00 0.00 0.00 53 1012.0
20260508172727 25 142 1.6 3.2 0.00 0.00 0.00 55 1012.5
20260508172224 25 272 1.6 4.8 0.00 0.00 0.00 56 1012.6
20260508171721 25 183 1.6 11.3 0.00 0.00 0.00 55 1012.8
20260508171217 25 196 4.8 6.4 0.00 0.00 0.00 55 1012.8
20260508170714 23 106 0.0 1.6 0.00 0.00 0.00 60 1012.9
20260508170212 22 197 1.6 9.7 0.00 0.00 0.00 60 1013.0
20260508165708 22 157 3.2 9.7 0.00 0.00 0.00 60 1013.2
20260508165205 22 248 0.0 9.7 0.00 0.00 0.00 61 1013.3
20260508164702 22 137 3.2 9.7 0.00 0.00 0.00 60 1013.5
20260508164159 23 198 3.2 11.3 0.00 0.00 0.00 59 1013.6
20260508163657 22 160 1.6 3.2 0.00 0.00 0.00 60 1013.7
20260508163154 22 162 0.0 4.8 0.00 0.00 0.00 61 1013.6
20260508162649 22 251 1.6 4.8 0.00 0.00 0.00 61 1013.7
20260508162146 22 192 4.8 9.7 0.00 0.00 0.00 59 1013.8
20260508161643 22 190 1.6 9.7 0.00 0.00 0.00 62 1013.9
20260508161141 21 173 1.6 11.3 0.00 0.00 0.00 61 1013.9
20260508160639 21 169 6.4 6.4 0.00 0.00 0.00 61 1013.9
20260508160136 21 170 3.2 6.4 0.00 0.00 0.00 62 1013.8
20260508155634 21 134 3.2 4.8 0.00 0.00 0.00 62 1014.2
20260508155130 21 222 3.2 9.7 0.00 0.00 0.00 61 1014.2
20260508154627 21 167 1.6 4.8 0.00 0.00 0.00 62 1014.3
20260508154124 21 179 3.2 9.7 0.00 0.00 0.00 62 1014.3
20260508153621 21 186 3.2 4.8 0.00 0.00 0.00 62 1014.2
20260508153117 20 168 3.2 3.2 0.00 0.00 0.00 63 1014.5
20260508152614 20 205 1.6 9.7 0.00 0.00 0.00 64 1014.6
20260508152109 20 213 3.2 6.4 0.00 0.00 0.00 63 1014.7
20260508151607 20 199 6.4 11.3 0.00 0.00 0.00 62 1014.5
20260508151104 20 189 6.4 6.4 0.00 0.00 0.00 63 1014.7
20260508150601 21 201 0.0 4.8 0.00 0.00 0.00 61 1014.6
20260508150057 21 131 0.0 3.2 0.00 0.00 0.00 61 1014.5
20260508145553 20 240 1.6 6.4 0.00 0.00 0.00 63 1014.1
20260508145050 20 191 3.2 6.4 0.00 0.00 0.00 62 1014.2
20260508144548 20 171 3.2 9.7 0.00 0.00 0.00 63 1014.2
20260508144044 20 162 0.0 1.6 0.00 0.00 0.00 66 1014.4
20260508143542 20 138 6.4 9.7 0.00 0.00 0.00 64 1014.7
20260508143038 20 120 1.6 9.7 0.00 0.00 0.00 65 1014.6
20260508142536 20 149 1.6 9.7 0.00 0.00 0.00 67 1014.7
20260508142032 20 149 1.6 9.7 0.00 0.00 0.00 67 1014.6
20260508141528 19 132 1.6 4.8 0.00 0.00 0.00 69 1014.8
20260508141027 19 202 1.6 11.3 0.00 0.00 0.00 68 1014.8
20260508140524 18 156 3.2 6.4 0.00 0.00 0.00 69 1014.7
20260508140020 18 165 1.6 3.2 0.00 0.00 0.00 72 1014.8
20260508135515 18 187 1.6 4.8 0.00 0.00 0.00 72 1014.8
20260508135012 18 137 3.2 4.8 0.00 0.00 0.00 73 1014.7
20260508134508 18 53 1.6 4.8 0.00 0.00 0.00 73 1014.7
20260508134006 18 196 0.0 4.8 0.00 0.00 0.00 76 1014.5
20260508133503 17 170 3.2 6.4 0.00 0.00 0.00 76 1014.7
20260508132959 17 235 1.6 4.8 0.00 0.00 0.00 77 1014.8
20260508132458 17 144 0.0 0.0 0.00 0.00 0.00 78 1014.7
20260508131954 17 174 0.0 1.6 0.00 0.00 0.00 77 1014.7
20260508131449 17 170 0.0 3.2 0.00 0.00 0.00 78 1014.7
20260508130946 17 149 0.0 1.6 0.00 0.00 0.00 79 1014.8
20260508130444 17 192 1.6 1.6 0.00 0.00 0.00 81 1014.8
20260508125939 17 162 0.0 0.0 0.00 0.00 0.00 81 1014.9
20260508125435 17 183 0.0 4.8 0.00 0.00 0.00 81 1014.7
20260508124933 17 149 0.0 1.6 0.00 0.00 0.00 81 1014.7
20260508124431 17 146 0.0 1.6 0.00 0.00 0.00 81 1015.0
20260508123928 16 180 0.0 1.6 0.00 0.00 0.00 81 1015.0
20260508123427 16 159 0.0 0.0 0.00 0.00 0.00 82 1015.1
20260508122923 16 172 0.0 1.6 0.00 0.00 0.00 82 1014.9
20260508122420 16 153 3.2 3.2 0.00 0.00 0.00 82 1015.0
20260508121917 16 166 0.0 1.6 0.00 0.00 0.00 82 1015.0
20260508121415 16 67 0.0 0.0 0.00 0.00 0.00 83 1014.8
20260508120912 16 343 0.0 0.0 0.00 0.00 0.00 82 1014.9
20260508120410 16 338 0.0 0.0 0.00 0.00 0.00 83 1015.3
20260508115908 16 185 0.0 0.0 0.00 0.00 0.00 82 1014.9
20260508115405 16 233 0.0 0.0 0.00 0.00 0.00 83 1015.0
20260508114901 16 149 0.0 1.6 0.00 0.00 0.00 83 1015.1
20260508114358 16 332 1.6 3.2 0.00 0.00 0.00 82 1015.0
20260508113855 16 169 0.0 1.6 0.00 0.00 0.00 82 1014.9
20260508113353 16 134 1.6 3.2 0.00 0.00 0.00 81 1014.7
20260508112850 16 148 1.6 4.8 0.00 0.00 0.00 81 1014.8
20260508112347 16 174 1.6 6.4 0.00 0.00 0.00 81 1014.8
20260508111843 16 167 0.0 1.6 0.00 0.00 0.00 81 1014.9
20260508111340 16 68 0.0 0.0 0.00 0.00 0.00 81 1015.2
20260508110837 16 120 0.0 0.0 0.00 0.00 0.00 82 1015.1
20260508110335 16 204 1.6 1.6 0.00 0.00 0.00 82 1015.4
20260508105835 16 163 0.0 1.6 0.00 0.00 0.00 82 1015.2
20260508105332 16 297 0.0 1.6 0.00 0.00 0.00 82 1015.4
20260508104828 16 335 3.2 4.8 0.00 0.00 0.00 82 1015.6
20260508104325 16 332 4.8 4.8 0.00 0.00 0.00 83 1015.3
20260508103823 16 273 0.0 1.6 0.00 0.00 0.00 83 1014.5
20260508103319 16 273 0.0 1.6 0.00 0.00 0.00 82 1014.4
20260508102817 16 184 0.0 0.0 0.00 0.00 0.00 82 1014.0
20260508102315 16 212 0.0 3.2 0.00 0.00 0.00 82 1013.9
20260508101812 16 197 1.6 4.8 0.00 0.00 0.00 83 1013.9
20260508101309 16 176 0.0 1.6 0.00 0.00 0.00 83 1014.0
20260508100807 16 164 0.0 0.0 0.00 0.00 0.00 83 1014.1
20260508100305 16 182 0.0 1.6 0.00 0.00 0.00 83 1013.9
20260508095800 16 182 0.0 3.2 0.00 0.00 0.00 83 1013.8
20260508095258 16 174 0.0 1.6 0.00 0.00 0.00 82 1013.6
20260508094755 16 175 0.0 1.6 0.00 0.00 0.00 83 1014.1
20260508094252 16 187 0.0 0.0 0.00 0.00 0.00 83 1014.2
20260508093749 16 193 0.0 1.6 0.00 0.00 0.00 83 1014.2
20260508093247 16 173 0.0 1.6 0.00 0.00 0.00 83 1014.3
20260508092743 16 175 0.0 0.0 0.00 0.00 0.00 83 1014.0
20260508092242 16 71 0.0 1.6 0.00 0.00 0.00 83 1014.1
20260508091739 16 71 0.0 0.0 0.00 0.00 0.00 82 1014.1
20260508091236 16 71 0.0 0.0 0.00 0.00 0.00 82 1014.1
20260508090734 16 71 1.6 1.6 0.00 0.00 0.00 83 1014.5
20260508090232 16 90 1.6 1.6 0.00 0.00 0.00 83 1014.3
20260508085727 16 116 0.0 1.6 0.00 0.00 0.00 82 1014.4
20260508085225 16 170 0.0 1.6 0.00 0.00 0.00 82 1014.2
20260508084720 16 184 1.6 9.7 0.00 0.00 0.00 82 1013.9
20260508084218 16 174 1.6 9.7 0.00 0.00 0.00 81 1014.1
20260508083715 17 157 1.6 3.2 0.00 0.00 0.00 81 1014.3
20260508083213 17 170 0.0 4.8 0.00 0.00 0.00 81 1014.7
20260508082707 17 154 1.6 3.2 0.00 0.00 0.00 81 1014.7
20260508082206 16 165 1.6 4.8 0.00 0.00 0.00 81 1014.8
20260508081703 16 174 1.6 3.2 0.00 0.00 0.00 82 1015.1
20260508081159 16 158 0.0 1.6 0.00 0.00 0.00 82 1015.3
20260508080656 16 147 0.0 0.0 0.00 0.00 0.00 83 1015.5
20260508080155 16 326 0.0 1.6 0.00 0.00 0.00 83 1015.9
20260508075650 16 263 3.2 4.8 0.00 0.00 0.00 83 1016.2
20260508075148 16 269 0.0 0.0 0.00 0.00 0.00 83 1015.6
20260508074645 16 262 1.6 1.6 0.00 0.00 0.00 83 1015.7
20260508074142 16 127 0.0 1.6 0.00 0.00 0.00 83 1015.3
20260508073639 16 126 0.0 1.6 0.00 0.00 0.00 83 1015.1
20260508073137 16 126 0.0 0.0 0.00 0.00 0.00 83 1015.0
20260508072632 16 126 1.6 1.6 0.00 0.00 0.00 83 1015.3
20260508072130 16 152 0.0 0.0 0.00 0.00 0.00 83 1015.3
20260508071627 16 152 0.0 0.0 0.00 0.00 0.00 83 1015.3
20260508071126 16 152 0.0 0.0 0.00 0.00 0.00 81 1015.4
20260508070623 16 152 0.0 0.0 0.00 0.00 0.00 82 1015.4
20260508070121 16 142 0.0 0.0 0.00 0.00 0.00 83 1015.3
20260508065618 16 142 0.0 0.0 0.00 0.00 0.00 83 1015.4
20260508065116 16 149 0.0 0.0 0.00 0.00 0.00 83 1015.5
20260508064613 16 149 0.0 0.0 0.00 0.00 0.00 83 1015.6
20260508064111 16 149 0.0 0.0 0.00 0.00 0.00 83 1015.9
20260508063608 16 149 0.0 0.0 0.00 0.00 0.00 83 1015.7
20260508063107 16 149 0.0 0.0 0.00 0.00 0.00 83 1015.9
20260508062604 16 149 0.0 0.0 0.00 0.00 0.00 83 1015.9
20260508062100 16 149 0.0 0.0 0.00 0.00 0.00 83 1015.9
20260508061558 16 151 0.0 0.0 0.00 0.00 0.00 83 1015.8
20260508061055 16 151 0.0 0.0 0.00 0.00 0.00 83 1015.8
20260508060551 16 145 0.0 0.0 0.00 0.00 0.00 82 1015.8
20260508060049 16 146 0.0 0.0 0.00 0.00 0.00 82 1016.1
20260508055544 16 150 0.0 0.0 0.00 0.00 0.00 82 1016.0
20260508055041 15 149 0.0 0.0 0.00 0.00 0.00 83 1015.9
20260508054538 15 149 0.0 0.0 0.00 0.00 0.00 83 1015.8
20260508054035 15 149 0.0 0.0 0.00 0.00 0.00 83 1015.8
20260508053532 16 149 0.0 0.0 0.00 0.00 0.00 82 1016.0
20260508053030 16 149 0.0 0.0 0.00 0.00 0.00 82 1015.9
20260508052527 16 150 0.0 0.0 0.00 0.00 0.00 81 1016.1
20260508052024 16 149 0.0 0.0 0.00 0.00 0.00 80 1015.9
20260508051520 16 150 0.0 0.0 0.00 0.00 0.00 78 1016.0
20260508051015 16 139 0.0 0.0 0.00 0.00 0.00 78 1015.9
20260508050512 16 138 0.0 0.0 0.00 0.00 0.00 79 1015.8
20260508050009 16 139 0.0 0.0 0.00 0.00 0.00 79 1015.9
20260508045506 16 139 0.0 0.0 0.00 0.00 0.00 81 1016.0
20260508045003 16 139 0.0 0.0 0.00 0.00 0.00 81 1015.9
20260508044500 16 139 0.0 0.0 0.00 0.00 0.00 81 1015.9
20260508043955 16 139 0.0 0.0 0.00 0.00 0.00 80 1015.6
20260508043453 16 139 0.0 0.0 0.00 0.00 0.00 81 1016.0
20260508042949 16 139 0.0 0.0 0.00 0.00 0.00 80 1015.5
20260508042447 16 139 0.0 0.0 0.00 0.00 0.00 80 1015.6
20260508041944 16 139 0.0 0.0 0.00 0.00 0.00 80 1015.9
20260508041440 16 139 0.0 0.0 0.00 0.00 0.00 78 1015.8
20260508040937 16 139 0.0 0.0 0.00 0.00 0.00 77 1015.8
20260508040434 16 139 0.0 0.0 0.00 0.00 0.00 76 1015.7
20260508035932 16 136 0.0 0.0 0.00 0.00 0.00 76 1015.7
20260508035429 16 140 0.0 0.0 0.00 0.00 0.00 76 1015.7
20260508034925 16 152 0.0 0.0 0.00 0.00 0.00 76 1015.8
20260508034423 16 171 0.0 0.0 0.00 0.00 0.00 75 1015.6
20260508033919 17 171 0.0 0.0 0.00 0.00 0.00 74 1015.7
20260508033417 17 171 0.0 0.0 0.00 0.00 0.00 73 1015.7